Tracking 25405 objects as of 26-Jan-2022
HD Live streaming from Space Station
objects crossing your sky now

GEOS 2

Track GEOS 2 now!
GEOS 2 is classified as:


NORAD ID: 10981
Int'l Code: 1978-071A
Perigee: 36,031.9 km
Apogee: 36,060.2 km
Inclination: 9.5 °
Period: 1,449.0 minutes
Semi major axis: 42417 km
RCS: 2.0304 m2 (large)
Launch date: July 14, 1978
Source: European Space Agency (ESA)
Launch site: AIR FORCE EASTERN TEST RANGE (AFETR)
aabbcc
Your satellite tracking list
Your tracking list is empty




NASA's NSSDC Master Catalog

Two Line Element Set (TLE):
1 10981U 78071A   22025.49324554 -.00000220  00000-0  00000-0 0  9994
2 10981   9.4805 303.4116 0003336 354.1284 313.0977  0.99378517158055
Source of the keplerian elements: AFSPC